Regional Weather Roundup
Issued by NWS

Home | Current Version | Previous Version | Graphics & Text | Print | Product List | Glossary On
Versions: 1 2 3 4 5 6 7 8 9 10 11 12 13 14 15 16 17 18 19 20 21 22 23 24 25 26 27
000
ASUS45 KCYS 190210
RWRWY

WYOMING REGIONAL WEATHER ROUNDUP
NATIONAL WEATHER SERVICE CHEYENNE WY
800 PM MDT MON SEP 18 2017

NOTE:  "FAIR" INDICATES FEW OR NO CLOUDS BELOW 12,000 FEET
WITH NO SIGNIFICANT WEATHER AND/OR OBSTRUCTIONS TO VISIBILITY.

WYZ001-190300-
YELLOWSTONE NATIONAL PARK

CITY           SKY/WX    TMP DP  RH WIND       PRES   REMARKS
LK YELLOWSTONE   N/A     40  39  97 VRB6      29.92R
W YELLOWSTONE  NOT AVBL

$$
WYZ002>013-054>058-071-098>099-190300-
NORTHERN WYOMING

CITY           SKY/WX    TMP DP  RH WIND       PRES   REMARKS
JACKSON        NOT AVBL
CODY           FAIR      62  36  37 SW9       29.71S
GREYBULL       FAIR      68  39  34 S7        29.62S
WORLAND        FAIR      64  40  41 S9        29.65F
SHERIDAN       FAIR      63  39  41 NW6       29.63F
BUFFALO        FAIR      67  30  25 S13       29.70F
GILLETTE       FAIR      60  44  55 S7        29.69F
HULETT         FAIR      64  37  36 SE10      29.71F
NEWCASTLE      FAIR      70  32  24 E10G16    29.75S

$$
WYZ014>020-022>026-101>103-190300-
CENTRAL WYOMING

CITY           SKY/WX    TMP DP  RH WIND       PRES   REMARKS
BIG PINEY      CLOUDY    61  32  33 SW15      29.84F
PINEDALE       CLOUDY    59  32  36 SW7       29.85F
DUBOIS         LGT RAIN  46  37  71 W9        29.86S
LANDER         NOT AVBL
RIVERTON       FAIR      64  34  32 W9        29.73F
CASPER         FAIR      67  30  25 SW15      29.79S
DOUGLAS        FAIR      69  29  22 S8        29.81S

$$
WYZ021-027>030-104>119-190300-
SOUTHERN WYOMING

CITY           SKY/WX    TMP DP  RH WIND       PRES   REMARKS
EVANSTON       FAIR      62  30  29 SW29G37   29.85F
KEMMERER         N/A    N/A N/A N/A S16G22    29.88F
FORT BRIDGER   FAIR      63  32  31 SW13      29.90F
ROCK SPRINGS   MOCLDY    61  29  29 S18G29    29.87F
DIXON          FAIR      65  28  25 SW8       29.95F
RAWLINS        FAIR      64  31  28 SW15G23   29.91F
SARATOGA       FAIR      57  27  30 SE7       29.97S
LARAMIE        FAIR      59  27  29 S13       29.99S
CHEYENNE       FAIR      65  28  24 S10       29.94S
TORRINGTON     FAIR      67  45  45 SE12      29.79F
PINE BLUFFS    FAIR      63  32  31 S8        29.90S

$$




USA.gov is the U.S. government's official web portal to all federal, state and local government web resources and services.